Location: McFarlands Corners
(41.4117°N, 81.3382°W)
Time: 05:39:44
(UTC+00:00)

A-11 Canister half - Pass Details

Date: 25 February 2026
Orbit: 1524 x 1683 km, 47.3° (Epoch: 14 March)

Event Time Altitude Azimuth Distance (km) Brightness Sun altitude
Rises 00:57:30 0° 294° (WNW) 4,692 12.9 -20.8°
Reaches altitude 10° 01:00:34 10° 295° (WNW) 3,700 12.0 -21.4°
Maximum altitude 01:09:54 85° 24° (NNE) 1,534 8.9 -23.1°
Enters shadow 01:14:11 38° 111° (ESE) 2,184 9.3 -23.9°
